Location: Barcelona
(41.3829°N, 2.1774°E)
Time: 15:00:12
(UTC+00:00)

ISS - Pass Details

Date: 11 July 2024
Orbit: 410 x 424 km, 51.6° (Epoch: 14 July)

Event Time Altitude Azimuth Distance (km) Brightness Sun altitude
Rises 20:09:14 0° 231° (SW) 2,327 0.2 -7.6°
Reaches altitude 10° 20:11:19 10° 231° (SW) 1,469 -0.8 -7.9°
Maximum altitude 20:14:36 83° 144° (SE) 417 -3.9 -8.4°
Drops below altitude 10° 20:17:55 10° 56° (NE) 1,477 -1.1 -8.9°
Sets 20:20:01 0° 55° (NE) 2,343 -0.1 -9.2°
